Weather History for KCCY - April, 2014

Change the Weather History Date:

Sunday, April 13, 2014

  Actual Average Record
Temperature  
Mean Temperature 42 °F -  
Max Temperature 50 °F 57 °F 87 °F (2006)
Min Temperature 33 °F 36 °F 20 °F (1950)
Degree Days  
Heating Degree Days 24    
Moisture  
Dew Point 41 °F    
Average Humidity 96    
Maximum Humidity 100    
Minimum Humidity 87    
Precipitation  
Precipitation 0.87 in - - ()
Sea Level Pressure  
Sea Level Pressure 29.69 in    
Wind  
Wind Speed 14 mph (NNE)    
Max Wind Speed 32 mph    
Max Gust Speed 45 mph    
Visibility 3 miles    
Events Fog , Rain , Snow    
Averages and records for this station are not official NWS values.
T = Trace of Precipitation, MM = Missing Value Source: NWS Daily Summary

Daily Weather History Graph

Daily Weather History Graph

Search for Another Location

Airport or City:

Trip Planner

Search our weather history database for the weather conditions in past years. The results will help you decide how hot, cold, wet, or windy it might be!

Date:

Astronomy

Apr. 13, 2014 Rise Set
Actual Time 6:31 AM CDT 7:50 PM CDT
Civil Twilight 6:02 AM CDT 8:20 PM CDT
Nautical Twilight 5:27 AM CDT 8:55 PM CDT
Astronomical Twilight 4:49 AM CDT 9:33 PM CDT
Moon 6:27 PM CDT (4/13) 5:33 AM CDT (4/13)
Length of Visible Light 14h 17m
Length of Day
13h 19m
Waxing Gibbous, 97% of the Moon is Illuminated
Apr 13
Waxing Gibbous
Apr 15
Full
Apr 22
Last Quarter
Apr 29
New
May 6
First Quarter

Hourly Weather History & Observations

Time (CDT) Temp. Windchill Dew Point Humidity Pressure Visibility Wind Dir Wind Speed Gust Speed Precip Events Conditions
12:15 AM 50.0 °F - 48.2 °F 94% 29.65 in - Calm Calm - N/A   Unknown
12:35 AM 48.2 °F - 48.2 °F 100% 29.63 in 5.0 mi NNE 6.9 mph - N/A Rain Light Rain
12:55 AM 48.2 °F - 46.4 °F 93% 29.63 in 5.0 mi NNE 11.5 mph - 0.02 in   Light Drizzle
1:15 AM 48.2 °F - 46.4 °F 93% 29.63 in 4.0 mi North 13.8 mph 21.9 mph N/A   Overcast
1:35 AM 46.4 °F 41.5 °F 44.6 °F 93% 29.67 in 3.0 mi NNE 10.4 mph - N/A   Overcast
1:55 AM 46.4 °F 41.9 °F 44.6 °F 93% 29.71 in 2.5 mi North 9.2 mph - N/A   Overcast
2:15 AM 46.4 °F 41.9 °F 44.6 °F 93% 29.72 in 3.0 mi North 9.2 mph - N/A   Overcast
2:35 AM 44.6 °F 38.8 °F 44.6 °F 100% 29.72 in 2.5 mi NNE 11.5 mph - N/A   Overcast
2:55 AM 44.6 °F 39.7 °F 44.6 °F 100% 29.72 in 2.5 mi NNE 9.2 mph - N/A   Overcast
3:15 AM 44.6 °F 39.2 °F 44.6 °F 100% 29.72 in 2.0 mi NNE 10.4 mph - N/A   Overcast
3:35 AM 44.6 °F 39.2 °F 42.8 °F 93% 29.71 in 1.0 mi NNE 10.4 mph - N/A   Overcast
3:55 AM 44.6 °F 38.8 °F 44.6 °F 100% 29.70 in 0.8 mi NNE 11.5 mph - N/A   Overcast
4:15 AM 44.6 °F 38.8 °F 42.8 °F 93% 29.70 in 0.8 mi NNE 11.5 mph - N/A   Overcast
4:35 AM 44.6 °F 39.2 °F 44.6 °F 100% 29.69 in 0.8 mi NNE 10.4 mph - N/A   Overcast
4:55 AM 44.6 °F 38.1 °F 42.8 °F 93% 29.68 in 0.2 mi NNE 13.8 mph - N/A Fog Fog
5:15 AM 42.8 °F 35.1 °F 42.8 °F 100% 29.68 in 0.2 mi NNE 16.1 mph 21.9 mph N/A Fog Fog
5:35 AM 42.8 °F 35.1 °F 42.8 °F 100% 29.68 in 0.2 mi NNE 16.1 mph - N/A Fog Fog
5:55 AM 42.8 °F 34.8 °F 42.8 °F 100% 29.69 in 0.2 mi North 17.3 mph - N/A Fog Fog
6:15 AM 42.8 °F 36.2 °F 42.8 °F 100% 29.68 in 0.5 mi NNE 12.7 mph - N/A   Overcast
6:35 AM 42.8 °F 36.2 °F 42.8 °F 100% 29.71 in 0.5 mi NNE 12.7 mph - N/A   Overcast
6:55 AM 42.8 °F 36.6 °F 42.8 °F 100% 29.72 in 0.5 mi North 11.5 mph - 0.01 in Fog Fog
7:15 AM 42.8 °F 36.6 °F 42.8 °F 100% 29.73 in 0.2 mi North 11.5 mph - N/A Fog Fog
7:35 AM 42.8 °F 35.1 °F 42.8 °F 100% 29.74 in 0.8 mi NNE 16.1 mph - N/A   Overcast
7:55 AM 42.8 °F 36.2 °F 42.8 °F 100% 29.75 in 0.5 mi NNE 12.7 mph - N/A   Overcast
8:15 AM 42.8 °F 35.4 °F 42.8 °F 100% 29.75 in 0.8 mi North 15.0 mph - N/A   Overcast
8:35 AM 42.8 °F 36.2 °F 42.8 °F 100% 29.76 in 0.8 mi NNE 12.7 mph - N/A   Overcast
8:55 AM 42.8 °F 35.4 °F 42.8 °F 100% 29.74 in 0.8 mi North 15.0 mph - N/A   Overcast
9:15 AM 42.8 °F 34.8 °F 42.8 °F 100% 29.72 in 1.0 mi NNE 17.3 mph 23.0 mph N/A   Overcast
9:35 AM 42.8 °F 35.4 °F 42.8 °F 100% 29.75 in 1.0 mi NE 15.0 mph 21.9 mph N/A   Overcast
9:55 AM 42.8 °F 35.4 °F 42.8 °F 100% 29.75 in 1.8 mi NNE 15.0 mph - N/A   Overcast
10:15 AM 42.8 °F 36.2 °F 42.8 °F 100% 29.78 in 1.2 mi NE 12.7 mph - N/A   Overcast
10:35 AM 42.8 °F 35.4 °F 42.8 °F 100% 29.77 in 0.8 mi NNE 15.0 mph - N/A   Overcast
10:55 AM 42.8 °F 35.4 °F 42.8 °F 100% 29.76 in 0.8 mi NNE 15.0 mph - N/A   Overcast
11:15 AM 42.8 °F 35.4 °F 42.8 °F 100% 29.77 in 1.5 mi NNE 15.0 mph - N/A   Overcast
11:35 AM 42.8 °F 35.1 °F 42.8 °F 100% 29.76 in 1.0 mi NNE 16.1 mph 21.9 mph N/A   Overcast
11:55 AM 42.8 °F 34.8 °F 42.8 °F 100% 29.74 in 1.2 mi NNE 17.3 mph - 0.05 in   Overcast
12:15 PM 42.8 °F 35.1 °F 42.8 °F 100% 29.74 in 1.0 mi NNE 16.1 mph - N/A Rain Heavy Rain
12:35 PM 42.8 °F 34.3 °F 42.8 °F 100% 29.73 in 1.2 mi NNE 19.6 mph - N/A Rain Light Rain
12:55 PM 42.8 °F 34.5 °F 42.8 °F 100% 29.72 in 3.0 mi NNE 18.4 mph - 0.26 in   Overcast
1:15 PM 42.8 °F 34.3 °F 42.8 °F 100% 29.70 in 2.5 mi NNE 19.6 mph 25.3 mph N/A Rain Heavy Rain
1:35 PM 44.6 °F 36.1 °F 42.8 °F 93% 29.69 in 3.0 mi NNE 21.9 mph - N/A   Overcast
1:55 PM 44.6 °F 36.1 °F 42.8 °F 93% 29.68 in 3.0 mi NNE 21.9 mph - 0.07 in   Overcast
2:15 PM 44.6 °F 36.9 °F 42.8 °F 93% 29.71 in 2.0 mi North 18.4 mph - N/A Rain Heavy Rain
2:35 PM 44.6 °F 36.6 °F 42.8 °F 93% 29.70 in 2.0 mi North 19.6 mph 27.6 mph N/A   Overcast
2:55 PM 44.6 °F 36.9 °F 42.8 °F 93% 29.70 in 2.0 mi North 18.4 mph 27.6 mph 0.12 in   Overcast
3:15 PM 44.6 °F 36.4 °F 42.8 °F 93% 29.69 in 2.0 mi NNE 20.7 mph 29.9 mph N/A Rain Heavy Rain
3:35 PM 44.6 °F 36.6 °F 42.8 °F 93% 29.68 in 2.5 mi NNE 19.6 mph 27.6 mph N/A   Overcast
3:55 PM 44.6 °F 35.9 °F 42.8 °F 93% 29.67 in 2.5 mi NNE 23.0 mph 32.2 mph 0.18 in   Overcast
4:15 PM 42.8 °F 33.1 °F 41.0 °F 93% 29.66 in 2.5 mi NNE 25.3 mph 32.2 mph N/A   Overcast
4:35 PM 42.8 °F 34.0 °F 41.0 °F 93% 29.65 in 3.0 mi NNE 20.7 mph 39.1 mph N/A   Overcast
4:55 PM 42.8 °F 33.1 °F 41.0 °F 93% 29.64 in 3.0 mi North 25.3 mph 34.5 mph 0.06 in   Overcast
5:15 PM 42.8 °F 32.9 °F 41.0 °F 93% 29.63 in 5.0 mi North 26.5 mph 33.4 mph N/A   Overcast
5:35 PM 42.8 °F 33.1 °F 41.0 °F 93% 29.63 in 3.0 mi North 25.3 mph 36.8 mph N/A Rain Light Rain
5:55 PM 41.0 °F 29.5 °F 39.2 °F 93% 29.62 in 4.0 mi North 32.2 mph 41.4 mph 0.04 in   Overcast
6:15 PM 41.0 °F 30.0 °F 39.2 °F 93% 29.64 in 5.0 mi North 28.8 mph 38.0 mph N/A Rain Light Rain
6:35 PM 41.0 °F 30.0 °F 39.2 °F 93% 29.64 in 2.0 mi North 28.8 mph 38.0 mph N/A   Overcast
6:55 PM 41.0 °F 31.1 °F 39.2 °F 93% 29.65 in 2.5 mi North 23.0 mph 35.7 mph 0.03 in   Overcast
7:15 PM 39.2 °F 28.3 °F 37.4 °F 93% 29.64 in 6.0 mi North 25.3 mph 36.8 mph N/A Rain Light Rain
7:35 PM 39.2 °F 27.8 °F 37.4 °F 93% 29.64 in 10.0 mi North 27.6 mph 44.9 mph N/A Rain Light Rain
7:55 PM 39.2 °F 27.6 °F 35.6 °F 87% 29.64 in 10.0 mi North 28.8 mph 38.0 mph 0.01 in Rain Light Rain
8:15 PM 37.4 °F 26.1 °F 35.6 °F 93% 29.65 in 7.0 mi North 24.2 mph 34.5 mph N/A Rain Light Rain
8:35 PM 37.4 °F 25.4 °F 35.6 °F 93% 29.66 in 7.0 mi North 27.6 mph 39.1 mph N/A Rain Light Rain
8:55 PM 37.4 °F 25.9 °F 33.8 °F 87% 29.67 in 6.0 mi North 25.3 mph 38.0 mph 0.01 in   Overcast
9:15 PM 35.6 °F 22.7 °F 33.8 °F 93% 29.67 in 7.0 mi North 28.8 mph 38.0 mph N/A Rain Light Rain
9:35 PM 35.6 °F 22.5 °F 33.8 °F 93% 29.67 in 8.0 mi North 29.9 mph 38.0 mph N/A Rain Light Rain
9:55 PM 35.6 °F 23.0 °F 33.8 °F 93% 29.69 in 9.0 mi North 27.6 mph 38.0 mph N/A Rain Light Rain
10:15 PM 35.6 °F 23.2 °F 33.8 °F 93% 29.69 in 8.0 mi North 26.5 mph 35.7 mph N/A Rain Light Rain
10:35 PM 35.6 °F 22.7 °F 32.0 °F 87% 29.69 in 5.0 mi North 28.8 mph 35.7 mph N/A   Overcast
10:55 PM 33.8 °F 20.3 °F 32.0 °F 93% 29.68 in 4.0 mi North 28.8 mph 35.7 mph 0.01 in Rain Light Rain
11:15 PM 33.8 °F 19.9 °F 32.0 °F 93% 29.68 in 4.0 mi North 31.1 mph 39.1 mph N/A Snow Light Snow
11:35 PM 33.8 °F 20.3 °F 32.0 °F 93% 29.69 in 3.0 mi North 28.8 mph 42.6 mph N/A Rain Light Rain
11:55 PM 33.8 °F 20.3 °F 32.0 °F 93% 29.70 in 2.5 mi North 28.8 mph 41.4 mph N/A Rain Light Rain